| time (UTC) | temp F | wind direction | speed knots | gust knots | rain 1hr in | rain 24hr in | rain mn in | humidity % | barometer mb |
| 20260504044604 | 43 | 0 | 0.0 | 0.0 | 0.00 | 0.00 | 0.00 | 79 | 1015.4 |
| 20260504043057 | 44 | 0 | 0.0 | 0.0 | 0.00 | 0.00 | 0.00 | 77 | 1015.4 |
| 20260504041559 | 44 | 0 | 0.0 | 0.9 | 0.00 | 0.00 | 0.00 | 78 | 1015.2 |
| 20260504040107 | 44 | 0 | 0.0 | 0.0 | 0.00 | 0.00 | 0.00 | 78 | 1015.3 |
| 20260504034603 | 45 | 0 | 0.9 | 1.7 | 0.00 | 0.00 | 0.00 | 77 | 1015.3 |
| 20260504033114 | 45 | 98 | 0.9 | 2.6 | 0.00 | 0.00 | 0.00 | 76 | 1015.3 |
| 20260504031558 | 46 | 99 | 1.7 | 2.6 | 0.00 | 0.00 | 0.00 | 74 | 1015.2 |
| 20260504030059 | 46 | 99 | 1.7 | 2.6 | 0.00 | 0.00 | 0.00 | 74 | 1015.3 |
| 20260504024605 | 46 | 97 | 1.7 | 3.5 | 0.00 | 0.00 | 0.00 | 73 | 1015.4 |
| 20260504023059 | 46 | 96 | 1.7 | 3.5 | 0.00 | 0.00 | 0.00 | 72 | 1015.2 |
| 20260504021557 | 48 | 110 | 2.6 | 5.2 | 0.00 | 0.00 | 0.00 | 67 | 1015.3 |
| 20260504014558 | 50 | 105 | 2.6 | 3.5 | 0.00 | 0.00 | 0.00 | 65 | 1015.5 |
| 20260504013058 | 50 | 115 | 1.7 | 2.6 | 0.00 | 0.00 | 0.00 | 63 | 1015.4 |
| 20260504011558 | 51 | 112 | 2.6 | 3.5 | 0.00 | 0.00 | 0.00 | 63 | 1015.3 |
| 20260504010109 | 52 | 95 | 0.9 | 2.6 | 0.00 | 0.00 | 0.00 | 59 | 1015.3 |
| 20260504004603 | 52 | 95 | 0.9 | 2.6 | 0.00 | 0.00 | 0.00 | 58 | 1015.1 |
| 20260504003058 | 53 | 98 | 0.9 | 2.6 | 0.00 | 0.00 | 0.00 | 54 | 1014.9 |
| 20260504001614 | 54 | 96 | 0.9 | 3.5 | 0.00 | 0.00 | 0.00 | 53 | 1015.0 |
| 20260504000059 | 55 | 74 | 0.9 | 1.7 | 0.00 | 0.00 | 0.00 | 46 | 1015.0 |
| 20260503234557 | 56 | 0 | 0.0 | 0.0 | 0.00 | 0.00 | 0.00 | 43 | 1015.1 |
| 20260503233057 | 57 | 0 | 0.0 | 1.7 | 0.00 | 0.00 | 0.00 | 40 | 1015.2 |
| 20260503231558 | 57 | 55 | 0.0 | 2.6 | 0.00 | 0.00 | 0.00 | 37 | 1015.3 |
| 20260503230101 | 57 | 53 | 0.0 | 3.5 | 0.00 | 0.00 | 0.00 | 36 | 1015.4 |
| 20260503224557 | 58 | 74 | 0.9 | 6.1 | 0.00 | 0.00 | 0.00 | 37 | 1015.5 |
| 20260503223103 | 59 | 261 | 1.7 | 7.0 | 0.00 | 0.00 | 0.00 | 34 | 1015.4 |
| 20260503221558 | 59 | 211 | 0.9 | 8.7 | 0.00 | 0.00 | 0.00 | 37 | 1015.6 |
| 20260503220110 | 60 | 117 | 2.6 | 6.1 | 0.00 | 0.00 | 0.00 | 34 | 1015.5 |
| 20260503214557 | 60 | 220 | 1.7 | 7.8 | 0.00 | 0.00 | 0.00 | 35 | 1015.5 |
| 20260503213057 | 59 | 128 | 1.7 | 10.4 | 0.00 | 0.00 | 0.00 | 34 | 1015.4 |
| 20260503211609 | 60 | 209 | 0.9 | 7.8 | 0.00 | 0.00 | 0.00 | 34 | 1015.4 |
| 20260503210059 | 59 | 0 | 0.0 | 6.1 | 0.00 | 0.00 | 0.00 | 33 | 1015.6 |
| 20260503204606 | 59 | 40 | 1.7 | 9.6 | 0.00 | 0.00 | 0.00 | 34 | 1015.8 |
| 20260503203056 | 59 | 272 | 3.5 | 10.4 | 0.00 | 0.00 | 0.00 | 36 | 1016.1 |
| 20260503201559 | 59 | 245 | 1.7 | 7.8 | 0.00 | 0.00 | 0.00 | 37 | 1016.2 |
| 20260503200059 | 58 | 261 | 1.7 | 8.7 | 0.00 | 0.00 | 0.00 | 36 | 1016.7 |
| 20260503194557 | 59 | 37 | 1.7 | 6.1 | 0.00 | 0.00 | 0.00 | 35 | 1016.9 |
| 20260503193113 | 58 | 252 | 4.3 | 13.0 | 0.00 | 0.00 | 0.00 | 38 | 1017.3 |
| 20260503191601 | 58 | 100 | 4.3 | 12.2 | 0.00 | 0.00 | 0.00 | 37 | 1017.5 |
| 20260503190055 | 58 | 238 | 1.7 | 10.4 | 0.00 | 0.00 | 0.00 | 38 | 1017.6 |
| 20260503184559 | 58 | 234 | 3.5 | 8.7 | 0.00 | 0.00 | 0.00 | 42 | 1017.9 |
| 20260503183105 | 57 | 217 | 5.2 | 10.4 | 0.00 | 0.00 | 0.00 | 40 | 1018.0 |
| 20260503181622 | 56 | 79 | 5.2 | 12.2 | 0.00 | 0.00 | 0.00 | 41 | 1017.9 |
| 20260503180131 | 56 | 170 | 4.3 | 12.2 | 0.00 | 0.00 | 0.00 | 39 | 1018.2 |
| 20260503174559 | 56 | 258 | 1.7 | 7.0 | 0.00 | 0.00 | 0.00 | 39 | 1018.4 |
| 20260503173102 | 56 | 319 | 4.3 | 8.7 | 0.00 | 0.00 | 0.00 | 41 | 1018.4 |
| 20260503171558 | 54 | 0 | 0.9 | 7.0 | 0.00 | 0.00 | 0.00 | 36 | 1018.6 |
| 20260503170103 | 54 | 113 | 0.9 | 7.8 | 0.00 | 0.00 | 0.00 | 42 | 1018.8 |
| 20260503150105 | 50 | 252 | 2.6 | 10.4 | 0.00 | 0.00 | 0.00 | 54 | 1020.1 |
| 20260503120110 | 35 | 0 | 0.0 | 0.0 | 0.00 | 0.00 | 0.00 | 96 | 1019.6 |
| 20260503100123 | 30 | 0 | 0.0 | 0.0 | 0.00 | 0.00 | 0.00 | 93 | 1018.3 |
| 20260503081601 | 31 | 0 | 0.0 | 0.0 | 0.00 | 0.00 | 0.00 | 91 | 1017.8 |
| 20260503071619 | 33 | 0 | 0.0 | 0.0 | 0.00 | 0.00 | 0.00 | 90 | 1017.4 |
| 20260503070104 | 33 | 0 | 0.0 | 0.0 | 0.00 | 0.00 | 0.00 | 90 | 1017.3 |
| 20260503060116 | 34 | 0 | 0.0 | 1.7 | 0.00 | 0.00 | 0.00 | 86 | 1017.2 |
| 20260503054558 | 35 | 101 | 0.9 | 2.6 | 0.00 | 0.00 | 0.00 | 86 | 1017.2 |
| 20260503053057 | 36 | 0 | 0.0 | 0.0 | 0.00 | 0.00 | 0.00 | 85 | 1017.2 |